Regional Weather Roundup
Issued by NWS

Home | Current Version | Previous Version | Text Only | Print | Product List | Glossary Off
Versions: 1 2 3 4 5 6 7 8 9 10 11 12 13 14 15 16 17 18 19 20 21 22 23 24 25 26 27 28 29 30 31 32 33 34 35 36 37 38 39 40 41 42 43 44 45 46 47 48 49 50

000
ASUS44 KMEG 062300
RWRTN
TENNESSEE HOURLY STATE WEATHER ROUNDUP
NATIONAL WEATHER SERVICE MEMPHIS TN
600 PM CDT WED MAY 06 2015

TNZ002-004-019-021-049-052-054-088>092-070000-
WEST TENNESSEE

CITY           SKY/WX    TMP DP  RH WIND       PRES   REMARKS
MEMPHIS INTL   MOSUNNY   82  51  34 S13       30.05F
NWS MEMPHIS      N/A     83 N/A N/A MISG        N/A
JACKSON        SUNNY     82  48  30 S7        30.07S
DYERSBURG      SUNNY     82  45  26 SE14      30.06S
PARIS          SUNNY     79  54  41 S7        30.08S
LEXINGTON      SUNNY     81  50  34 S5        30.07F
$$

TNZ008-025-027-028-033-062-065-066-070000-
NORTH MIDDLE TENNESSEE

CITY           SKY/WX    TMP DP  RH WIND       PRES   REMARKS
NASHVILLE      MOSUNNY   82  53  36 SE5       30.08F
CLARKSVILLE    SUNNY     81  59  47 SE5       30.07F
CROSSVILLE     SUNNY     79  45  29 SE6       30.14S
$$

TNZ061-075-076-078-094-096-097-070000-
SOUTH MIDDLE TENNESSEE

CITY           SKY/WX    TMP DP  RH WIND       PRES   REMARKS
FAYETTEVILLE     N/A     81  50  34 S6        30.10F
WINCHESTER     SUNNY     81  52  36 S9        30.11S
SHELBYVILLE    MOSUNNY   82  57  42 CALM      30.10S
$$

TNZ017-018-042-046-047-070000-
NORTHEAST TENNESSEE

CITY           SKY/WX    TMP DP  RH WIND       PRES   REMARKS
TRI CITIES     PTSUNNY   70  64  81 CALM      30.14S
$$

TNZ012-013-036-069-073-074-070000-
CENTRAL EAST TENNESSEE

CITY           SKY/WX    TMP DP  RH WIND       PRES   REMARKS
KNOXVILLE      MOSUNNY   84  53  34 NW3       30.07F
OAK RIDGE      SUNNY     85  52  32 VRB3      30.09F
GATLINBURG     CLEAR     82  52  34 VRB6      30.07F
$$

TNZ083-085-099-070000-
SOUTHEAST TENNESSEE

CITY           SKY/WX    TMP DP  RH WIND       PRES   REMARKS
CHATTANOOGA    MOSUNNY   82  52  35 CALM      30.09F
$$

SKY/WX REPORTED AS FAIR MEANS FEW OR NO CLOUDS BELOW
12 THOUSAND FEET.



USA.gov is the U.S. government's official web portal to all federal, state and local government web resources and services.